This is the latest recevied weather packets stored in our database for station/object K8JCL-13. If no packets are shown the sender has not sent any weather packets the latest 1 day(s).
| Time | Temp. | Humidity | Pressure | Rain* | Wind** | Luminosity | Snow |
|---|---|---|---|---|---|---|---|
| 1778037394 | 10° C | 99% | 1007.6 hPa | 0 mm | 0.45 m/s, 28° | 0 W/m² | - |
| 1778037091 | 10° C | 99% | 1007.9 hPa | 0 mm | 0 m/s | 0 W/m² | - |
| 1778036790 | 9.44° C | 99% | 1007.6 hPa | 0 mm | 0.45 m/s, 317° | 0 W/m² | - |
| 1778036487 | 10° C | 99% | 1007.4 hPa | 1.27 mm | 0 m/s | 0 W/m² | - |
| 1778036183 | 10° C | 99% | 1007.8 hPa | 1.27 mm | 0 m/s | 0 W/m² | - |
| 1778035879 | 9.44° C | 99% | 1007.8 hPa | 1.78 mm | 0 m/s | 0 W/m² | - |
| 1778035578 | 10° C | 99% | 1007.7 hPa | 3.05 mm | 1.79 m/s, 47° | 0 W/m² | - |
| 1778035273 | 10° C | 99% | 1007.8 hPa | 3.05 mm | 1.34 m/s, 24° | 0 W/m² | - |
| 1778034970 | 10° C | 99% | 1008.1 hPa | 1.78 mm | 0.45 m/s, 16° | 0 W/m² | - |
| 1778034667 | 10° C | 99% | 1008.3 hPa | 1.78 mm | 0.45 m/s, 358° | 0 W/m² | - |
| 1778034364 | 10° C | 99% | 1008.4 hPa | 1.78 mm | 0.89 m/s, 352° | 0 W/m² | - |
| 1778034061 | 10° C | 99% | 1008.4 hPa | 1.27 mm | 2.24 m/s, 54° | 0 W/m² | - |
| 1778033759 | 10° C | 99% | 1008.4 hPa | 3.05 mm | 1.34 m/s, 18° | 0 W/m² | - |
| 1778033450 | 10° C | 99% | 1008.4 hPa | 4.83 mm | 0.89 m/s, 25° | 0 W/m² | - |
| 1778033147 | 10.56° C | 99% | 1008.4 hPa | 3.05 mm | 0 m/s | 0 W/m² | - |
| 1778032845 | 10.56° C | 99% | 1008.5 hPa | 3.05 mm | 0.89 m/s, 81° | 0 W/m² | - |
| 1778032542 | 10.56° C | 99% | 1008.3 hPa | 1.27 mm | 0.89 m/s, 343° | 0 W/m² | - |
| 1778032239 | 10.56° C | 99% | 1008.2 hPa | 1.78 mm | 0 m/s | 0 W/m² | - |
| 1778031937 | 11.11° C | 99% | 1008 hPa | 1.78 mm | 1.34 m/s, 327° | 0 W/m² | - |
| 1778031632 | 11.11° C | 99% | 1007.9 hPa | 1.27 mm | 0.89 m/s, 324° | 0 W/m² | - |
| 1778031331 | 11.67° C | 99% | 1007.8 hPa | 1.27 mm | 0.45 m/s, 343° | 0 W/m² | - |
| 1778031027 | 12.22° C | 99% | 1007.8 hPa | 1.78 mm | 0.45 m/s, 322° | 0 W/m² | - |
| 1778030723 | 12.78° C | 99% | 1007.8 hPa | 3.05 mm | 0.89 m/s, 331° | 0 W/m² | - |
| 1778030420 | 12.78° C | 99% | 1007.5 hPa | 3.05 mm | 0.89 m/s, 319° | 0 W/m² | - |
| 1778030128 | 15° C | 99% | 1007.4 hPa | 4.83 mm | 1.79 m/s, 318° | 0 W/m² | - |
* Rain latest hour (hover to see other rain measurements)
** Current wind speed in m/s (hover to see current wind gust speed)